Location: Haliburton Scout Reserve
(45.0900°N, 78.3200°W)
Time: 04:47:19
(UTC-04:00)

PCSat - Pass Details

Date: 24 May 2022
Orbit: 784 x 795 km, 67.1° (Epoch: 24 June)

Event Time Altitude Azimuth Distance (km) Brightness Sun altitude
Rises 01:04:56 0° 334° (NNW) 3,305 13.9 -24.1°
Reaches altitude 10° 01:08:42 10° 0° (N) 2,373 13.1 -24.1°
Maximum altitude 01:11:25 14° 31° (NNE) 2,118 12.5 -24.1°
Drops below altitude 10° 01:14:07 10° 61° (ENE) 2,368 12.4 -24.1°
Sets 01:17:52 0° 87° (E) 3,294 12.8 -24.1°
